Location: Godiavel Galaoual
(15.2485°N, 12.6604°W)
Time: 09:44:57
(UTC+00:00)

CSL-04 Debris - Pass Details

Date: 27 February 2020
Orbit: 827 x 848 km, 99.0° (Epoch: 28 March)

Event Time Altitude Azimuth Distance (km) Brightness Sun altitude
Rises 19:25:24 0° 154° (SSE) 3,371 7.1 -7.4°
Reaches altitude 10° 19:27:49 10° 148° (SSE) 2,442 6.4 -8.0°
Maximum altitude 19:32:59 47° 75° (ENE) 1,100 4.4 -9.3°
Drops below altitude 10° 19:38:11 10° 3° (N) 2,457 6.5 -10.5°
Sets 19:40:37 0° 357° (N) 3,396 7.3 -11.1°
